| time (UTC) | temp F | wind direction | speed MPH | gust MPH | rain 1hr in | rain 24hr in | rain mn in | humidity % | barometer mb |
| 20260902150003 | 70 | 106 | 1.0 | 6.0 | 0.00 | 0.02 | 0.00 | 96 | 1011.0 |
| 20260902145503 | 70 | 120 | 3.0 | 6.0 | 0.00 | 0.02 | 0.00 | 97 | 1010.9 |
| 20260902145003 | 69 | 103 | 2.0 | 6.0 | 0.00 | 0.02 | 0.00 | 98 | 1010.7 |
| 20260902144503 | 68 | 85 | 3.0 | 6.0 | 0.00 | 0.02 | 0.00 | 98 | 1010.8 |
| 20260902144003 | 67 | 98 | 2.0 | 4.0 | 0.00 | 0.02 | 0.00 | 100 | 1010.8 |
| 20260902143504 | 66 | 98 | 1.0 | 3.0 | 0.00 | 0.02 | 0.00 | 100 | 1010.8 |
| 20260902143003 | 66 | 98 | 0.0 | 5.0 | 0.00 | 0.02 | 0.00 | 100 | 1011.1 |
| 20260902142503 | 65 | 98 | 3.0 | 5.0 | 0.00 | 0.02 | 0.00 | 100 | 1011.0 |
| 20260902142003 | 64 | 136 | 2.0 | 4.0 | 0.00 | 0.02 | 0.00 | 100 | 1011.0 |
| 20260902141502 | 64 | 149 | 1.0 | 5.0 | 0.00 | 0.02 | 0.00 | 100 | 1011.1 |
| 20260902141003 | 64 | 159 | 2.0 | 5.0 | 0.00 | 0.02 | 0.00 | 100 | 1011.6 |
| 20260902140502 | 64 | 170 | 1.0 | 5.0 | 0.00 | 0.02 | 0.00 | 100 | 1012.2 |
| 20260902140003 | 64 | 132 | 2.0 | 3.0 | 0.00 | 0.02 | 0.00 | 100 | 1012.1 |
| 20260902135502 | 65 | 41 | 1.0 | 3.0 | 0.00 | 0.02 | 0.00 | 100 | 1011.4 |
| 20260902135003 | 65 | 39 | 1.0 | 2.0 | 0.00 | 0.02 | 0.00 | 100 | 1011.0 |
| 20260902134503 | 65 | 39 | 0.0 | 3.0 | 0.00 | 0.02 | 0.00 | 100 | 1011.2 |
| 20260902134003 | 65 | 39 | 1.0 | 3.0 | 0.00 | 0.02 | 0.00 | 100 | 1011.3 |
| 20260902133503 | 65 | 39 | 0.0 | 2.0 | 0.00 | 0.02 | 0.00 | 100 | 1011.3 |
| 20260902133003 | 65 | 39 | 1.0 | 2.0 | 0.00 | 0.02 | 0.00 | 100 | 1011.5 |
| 20260902132503 | 65 | 39 | 0.0 | 2.0 | 0.00 | 0.02 | 0.00 | 100 | 1011.4 |
| 20260902132002 | 65 | 39 | 1.0 | 4.0 | 0.00 | 0.02 | 0.00 | 100 | 1011.4 |
| 20260902131503 | 64 | 39 | 1.0 | 4.0 | 0.00 | 0.02 | 0.00 | 100 | 1011.4 |
| 20260902131002 | 64 | 46 | 1.0 | 3.0 | 0.00 | 0.02 | 0.00 | 100 | 1011.4 |
| 20260902130503 | 63 | 49 | 1.0 | 3.0 | 0.00 | 0.02 | 0.00 | 100 | 1011.5 |
| 20260902130002 | 63 | 354 | 1.0 | 4.0 | 0.00 | 0.02 | 0.00 | 100 | 1011.6 |
| 20260902125503 | 63 | 351 | 1.0 | 4.0 | 0.00 | 0.02 | 0.00 | 100 | 1011.8 |
| 20260902125003 | 63 | 48 | 1.0 | 3.0 | 0.00 | 0.02 | 0.00 | 100 | 1011.9 |
| 20260902124503 | 62 | 83 | 1.0 | 3.0 | 0.00 | 0.02 | 0.00 | 100 | 1011.9 |
| 20260902124003 | 62 | 83 | 0.0 | 3.0 | 0.00 | 0.02 | 0.00 | 100 | 1012.0 |
| 20260902123502 | 62 | 91 | 0.0 | 3.0 | 0.00 | 0.02 | 0.00 | 100 | 1012.0 |
| 20260902123003 | 62 | 92 | 0.0 | 0.0 | 0.00 | 0.02 | 0.00 | 100 | 1011.9 |
| 20260902122502 | 61 | 92 | 0.0 | 0.0 | 0.00 | 0.02 | 0.00 | 100 | 1011.9 |
| 20260902122003 | 61 | 92 | 0.0 | 0.0 | 0.00 | 0.02 | 0.00 | 100 | 1011.4 |
| 20260902121503 | 61 | 92 | 0.0 | 0.0 | 0.00 | 0.02 | 0.00 | 100 | 1010.9 |
| 20260902121003 | 61 | 92 | 0.0 | 0.0 | 0.00 | 0.02 | 0.00 | 100 | 1011.0 |
| 20260902120503 | 61 | 92 | 0.0 | 0.0 | 0.00 | 0.02 | 0.00 | 100 | 1010.9 |
| 20260902120003 | 61 | 92 | 0.0 | 1.0 | 0.00 | 0.02 | 0.00 | 100 | 1010.9 |
| 20260902115503 | 61 | 92 | 0.0 | 1.0 | 0.00 | 0.02 | 0.00 | 100 | 1010.9 |
| 20260902115003 | 61 | 92 | 0.0 | 1.0 | 0.00 | 0.02 | 0.00 | 100 | 1010.9 |
| 20260902114503 | 61 | 92 | 0.0 | 1.0 | 0.00 | 0.02 | 0.00 | 100 | 1010.9 |
| 20260902114002 | 61 | 92 | 0.0 | 0.0 | 0.00 | 0.02 | 0.00 | 100 | 1010.7 |
| 20260902113503 | 62 | 92 | 0.0 | 0.0 | 0.00 | 0.02 | 0.00 | 100 | 1010.5 |
| 20260902113002 | 62 | 92 | 0.0 | 0.0 | 0.00 | 0.02 | 0.00 | 100 | 1010.6 |
| 20260902112503 | 62 | 92 | 0.0 | 1.0 | 0.00 | 0.02 | 0.00 | 100 | 1010.5 |
| 20260902112002 | 62 | 92 | 0.0 | 1.0 | 0.00 | 0.02 | 0.00 | 100 | 1010.4 |
| 20260902111503 | 62 | 92 | 0.0 | 0.0 | 0.00 | 0.02 | 0.00 | 100 | 1010.4 |
| 20260902111002 | 62 | 92 | 0.0 | 0.0 | 0.00 | 0.02 | 0.00 | 100 | 1010.3 |
| 20260902110503 | 62 | 92 | 0.0 | 1.0 | 0.00 | 0.02 | 0.00 | 100 | 1010.3 |
| 20260902110003 | 62 | 92 | 0.0 | 1.0 | 0.00 | 0.02 | 0.00 | 100 | 1010.3 |
| 20260902105503 | 62 | 92 | 0.0 | 2.0 | 0.00 | 0.02 | 0.00 | 100 | 1010.4 |
| 20260902105003 | 62 | 92 | 0.0 | 2.0 | 0.00 | 0.02 | 0.00 | 100 | 1010.6 |
| 20260902104503 | 62 | 92 | 1.0 | 1.0 | 0.00 | 0.02 | 0.00 | 100 | 1010.4 |
| 20260902104002 | 62 | 92 | 0.0 | 1.0 | 0.00 | 0.02 | 0.00 | 100 | 1010.4 |
| 20260902103503 | 62 | 92 | 0.0 | 2.0 | 0.00 | 0.02 | 0.00 | 100 | 1010.4 |
| 20260902103002 | 63 | 92 | 1.0 | 2.0 | 0.00 | 0.02 | 0.00 | 100 | 1010.3 |
| 20260902102503 | 63 | 92 | 0.0 | 1.0 | 0.00 | 0.02 | 0.00 | 100 | 1010.4 |
| 20260902102003 | 63 | 92 | 0.0 | 3.0 | 0.00 | 0.02 | 0.00 | 100 | 1010.5 |
| 20260902101503 | 63 | 92 | 0.0 | 3.0 | 0.00 | 0.02 | 0.00 | 100 | 1010.3 |
| 20260902101003 | 63 | 92 | 2.0 | 3.0 | 0.00 | 0.02 | 0.00 | 100 | 1010.5 |
| 20260902100503 | 63 | 92 | 0.0 | 1.0 | 0.00 | 0.02 | 0.00 | 100 | 1010.6 |
| 20260902100003 | 63 | 92 | 0.0 | 1.0 | 0.00 | 0.02 | 0.00 | 100 | 1010.7 |
| 20260902095503 | 63 | 92 | 0.0 | 2.0 | 0.00 | 0.02 | 0.00 | 100 | 1010.8 |
| 20260902095003 | 63 | 92 | 0.0 | 3.0 | 0.00 | 0.02 | 0.00 | 100 | 1010.7 |
| 20260902094503 | 63 | 92 | 2.0 | 3.0 | 0.00 | 0.02 | 0.00 | 100 | 1010.9 |
| 20260902094003 | 62 | 92 | 2.0 | 3.0 | 0.00 | 0.02 | 0.00 | 100 | 1010.9 |
| 20260902093502 | 62 | 92 | 0.0 | 2.0 | 0.00 | 0.02 | 0.00 | 100 | 1010.9 |
| 20260902093003 | 62 | 92 | 0.0 | 1.0 | 0.00 | 0.02 | 0.00 | 100 | 1011.1 |
| 20260902092502 | 63 | 92 | 0.0 | 1.0 | 0.00 | 0.02 | 0.00 | 100 | 1011.2 |
| 20260902092003 | 63 | 92 | 0.0 | 1.0 | 0.00 | 0.02 | 0.00 | 100 | 1011.1 |
| 20260902091502 | 63 | 92 | 0.0 | 0.0 | 0.00 | 0.02 | 0.00 | 100 | 1011.2 |
| 20260902091003 | 63 | 92 | 0.0 | 1.0 | 0.00 | 0.02 | 0.00 | 100 | 1011.2 |
| 20260902090502 | 63 | 92 | 0.0 | 1.0 | 0.00 | 0.02 | 0.00 | 100 | 1011.3 |
| 20260902090004 | 63 | 92 | 0.0 | 0.0 | 0.00 | 0.02 | 0.00 | 100 | 1011.4 |
| 20260902085503 | 63 | 92 | 0.0 | 1.0 | 0.00 | 0.02 | 0.00 | 100 | 1011.5 |
| 20260902085003 | 63 | 92 | 0.0 | 1.0 | 0.00 | 0.02 | 0.00 | 100 | 1011.5 |
| 20260902084503 | 63 | 92 | 0.0 | 0.0 | 0.00 | 0.02 | 0.00 | 100 | 1011.5 |
| 20260902084003 | 63 | 92 | 0.0 | 2.0 | 0.00 | 0.02 | 0.00 | 100 | 1011.3 |
| 20260902083503 | 63 | 92 | 0.0 | 2.0 | 0.00 | 0.02 | 0.00 | 100 | 1011.3 |
| 20260902083002 | 63 | 92 | 1.0 | 2.0 | 0.00 | 0.02 | 0.00 | 100 | 1011.2 |
| 20260902082503 | 63 | 92 | 0.0 | 0.0 | 0.00 | 0.02 | 0.00 | 100 | 1011.4 |
| 20260902082002 | 63 | 92 | 0.0 | 0.0 | 0.00 | 0.02 | 0.00 | 100 | 1011.5 |
| 20260902081503 | 63 | 92 | 0.0 | 0.0 | 0.00 | 0.02 | 0.00 | 100 | 1011.3 |
| 20260902081002 | 63 | 92 | 0.0 | 1.0 | 0.00 | 0.02 | 0.00 | 100 | 1011.5 |
| 20260902080503 | 63 | 92 | 0.0 | 2.0 | 0.00 | 0.02 | 0.00 | 100 | 1011.2 |
| 20260902080003 | 63 | 92 | 0.0 | 2.0 | 0.00 | 0.02 | 0.00 | 100 | 1011.3 |
| 20260902075503 | 63 | 92 | 0.0 | 1.0 | 0.00 | 0.02 | 0.00 | 100 | 1011.4 |
| 20260902075003 | 63 | 92 | 0.0 | 1.0 | 0.00 | 0.02 | 0.00 | 100 | 1011.4 |
| 20260902074503 | 63 | 92 | 0.0 | 0.0 | 0.00 | 0.02 | 0.00 | 100 | 1011.3 |
| 20260902074003 | 63 | 92 | 0.0 | 1.0 | 0.00 | 0.02 | 0.00 | 100 | 1011.4 |
| 20260902073503 | 63 | 92 | 0.0 | 1.0 | 0.00 | 0.02 | 0.00 | 100 | 1011.2 |
| 20260902073003 | 63 | 92 | 0.0 | 1.0 | 0.00 | 0.02 | 0.00 | 100 | 1011.3 |
| 20260902072503 | 63 | 92 | 0.0 | 1.0 | 0.00 | 0.02 | 0.00 | 100 | 1011.1 |
| 20260902072003 | 63 | 92 | 0.0 | 0.0 | 0.00 | 0.02 | 0.00 | 100 | 1010.8 |
| 20260902071503 | 63 | 92 | 0.0 | 0.0 | 0.00 | 0.02 | 0.00 | 100 | 1010.8 |
| 20260902071003 | 63 | 92 | 0.0 | 0.0 | 0.00 | 0.02 | 0.00 | 100 | 1010.9 |
| 20260902070502 | 64 | 92 | 0.0 | 0.0 | 0.00 | 0.02 | 0.00 | 100 | 1010.9 |
| 20260902070003 | 64 | 92 | 0.0 | 0.0 | 0.00 | 0.02 | 0.00 | 100 | 1010.7 |
| 20260902065503 | 64 | 92 | 0.0 | 2.0 | 0.00 | 0.02 | 0.00 | 100 | 1010.5 |
| 20260902065003 | 64 | 92 | 0.0 | 2.0 | 0.00 | 0.02 | 0.00 | 100 | 1010.5 |
| 20260902064503 | 64 | 92 | 0.0 | 1.0 | 0.00 | 0.02 | 0.00 | 100 | 1010.4 |
| 20260902064003 | 64 | 92 | 0.0 | 0.0 | 0.00 | 0.02 | 0.00 | 100 | 1010.6 |
| 20260902063503 | 64 | 92 | 0.0 | 0.0 | 0.00 | 0.02 | 0.00 | 100 | 1010.5 |
| 20260902063003 | 64 | 92 | 0.0 | 0.0 | 0.00 | 0.02 | 0.00 | 100 | 1010.4 |
| 20260902062503 | 65 | 92 | 0.0 | 0.0 | 0.00 | 0.02 | 0.00 | 100 | 1010.3 |
| 20260902062003 | 65 | 92 | 0.0 | 0.0 | 0.00 | 0.02 | 0.00 | 100 | 1010.5 |
| 20260902061503 | 65 | 92 | 0.0 | 0.0 | 0.00 | 0.02 | 0.00 | 100 | 1010.5 |
| 20260902061003 | 65 | 92 | 0.0 | 1.0 | 0.00 | 0.02 | 0.00 | 100 | 1010.5 |
| 20260902060503 | 65 | 92 | 0.0 | 1.0 | 0.00 | 0.02 | 0.00 | 100 | 1010.6 |
| 20260902060002 | 65 | 92 | 0.0 | 1.0 | 0.00 | 0.02 | 0.00 | 100 | 1010.7 |
| 20260902055503 | 65 | 92 | 0.0 | 0.0 | 0.00 | 0.02 | 0.00 | 100 | 1010.8 |
| 20260902055002 | 65 | 92 | 0.0 | 1.0 | 0.00 | 0.02 | 0.00 | 100 | 1010.7 |
| 20260902054503 | 65 | 92 | 0.0 | 1.0 | 0.00 | 0.02 | 0.00 | 100 | 1010.7 |
| 20260902054002 | 66 | 92 | 0.0 | 1.0 | 0.00 | 0.02 | 0.00 | 100 | 1010.9 |
| 20260902053503 | 66 | 92 | 0.0 | 3.0 | 0.00 | 0.02 | 0.00 | 99 | 1011.1 |
| 20260902053003 | 66 | 92 | 1.0 | 3.0 | 0.00 | 0.02 | 0.00 | 99 | 1010.9 |
| 20260902052503 | 66 | 92 | 0.0 | 1.0 | 0.00 | 0.02 | 0.00 | 99 | 1011.0 |
| 20260902052003 | 66 | 92 | 0.0 | 1.0 | 0.00 | 0.02 | 0.00 | 99 | 1010.9 |
| 20260902051503 | 67 | 92 | 0.0 | 1.0 | 0.00 | 0.02 | 0.00 | 98 | 1010.9 |
| 20260902051003 | 67 | 92 | 0.0 | 2.0 | 0.00 | 0.02 | 0.00 | 98 | 1010.9 |
| 20260902050503 | 67 | 92 | 0.0 | 4.0 | 0.00 | 0.02 | 0.00 | 98 | 1010.7 |
| 20260902050004 | 67 | 92 | 1.0 | 5.0 | 0.00 | 0.02 | 0.02 | 99 | 1010.8 |
| 20260902045503 | 66 | 92 | 1.0 | 5.0 | 0.00 | 0.02 | 0.02 | 99 | 1010.7 |
| 20260902045003 | 66 | 90 | 3.0 | 5.0 | 0.00 | 0.02 | 0.02 | 100 | 1010.8 |
| 20260902044503 | 66 | 84 | 2.0 | 4.0 | 0.00 | 0.02 | 0.02 | 100 | 1010.8 |
| 20260902044003 | 66 | 84 | 1.0 | 3.0 | 0.00 | 0.02 | 0.02 | 100 | 1010.7 |
| 20260902043503 | 66 | 84 | 2.0 | 3.0 | 0.00 | 0.02 | 0.02 | 100 | 1010.9 |
| 20260902043003 | 66 | 83 | 0.0 | 3.0 | 0.00 | 0.02 | 0.02 | 100 | 1011.0 |
| 20260902042503 | 66 | 83 | 1.0 | 3.0 | 0.00 | 0.02 | 0.02 | 100 | 1011.1 |
| 20260902042003 | 66 | 80 | 0.0 | 3.0 | 0.00 | 0.02 | 0.02 | 100 | 1011.3 |
| 20260902041502 | 66 | 55 | 2.0 | 4.0 | 0.00 | 0.02 | 0.02 | 100 | 1011.5 |
| 20260902041003 | 66 | 54 | 1.0 | 4.0 | 0.00 | 0.02 | 0.02 | 100 | 1011.5 |
| 20260902040502 | 66 | 18 | 2.0 | 4.0 | 0.00 | 0.02 | 0.02 | 100 | 1011.5 |
| 20260902040003 | 66 | 360 | 0.0 | 0.0 | 0.00 | 0.02 | 0.02 | 100 | 1011.4 |
| 20260902035502 | 66 | 360 | 0.0 | 1.0 | 0.00 | 0.02 | 0.02 | 100 | 1011.4 |
| 20260902035003 | 66 | 360 | 0.0 | 2.0 | 0.00 | 0.02 | 0.02 | 100 | 1011.4 |
| 20260902034502 | 66 | 360 | 1.0 | 4.0 | 0.00 | 0.02 | 0.02 | 100 | 1011.5 |
| 20260902034003 | 66 | 360 | 1.0 | 4.0 | 0.00 | 0.02 | 0.02 | 100 | 1011.6 |
| 20260902033503 | 66 | 6 | 2.0 | 3.0 | 0.00 | 0.02 | 0.02 | 100 | 1011.5 |
| 20260902033003 | 66 | 8 | 0.0 | 2.0 | 0.00 | 0.02 | 0.02 | 100 | 1011.4 |
| 20260902032502 | 66 | 8 | 1.0 | 2.0 | 0.00 | 0.02 | 0.02 | 100 | 1011.5 |
| 20260902032003 | 66 | 7 | 0.0 | 2.0 | 0.00 | 0.02 | 0.02 | 100 | 1011.5 |
| 20260902031502 | 66 | 8 | 0.0 | 3.0 | 0.00 | 0.02 | 0.02 | 100 | 1011.5 |
| 20260902031003 | 66 | 9 | 2.0 | 3.0 | 0.00 | 0.02 | 0.02 | 100 | 1011.4 |
| 20260902030502 | 66 | 339 | 0.0 | 4.0 | 0.00 | 0.02 | 0.02 | 100 | 1011.7 |
| 20260902030003 | 66 | 344 | 2.0 | 4.0 | 0.01 | 0.02 | 0.02 | 100 | 1011.8 |
| 20260902025503 | 66 | 360 | 0.0 | 3.0 | 0.01 | 0.02 | 0.02 | 100 | 1011.9 |
| 20260902025003 | 67 | 360 | 1.0 | 3.0 | 0.01 | 0.02 | 0.02 | 100 | 1011.8 |
| 20260902024503 | 67 | 47 | 1.0 | 4.0 | 0.01 | 0.02 | 0.02 | 99 | 1011.3 |
| 20260902024003 | 67 | 51 | 2.0 | 8.0 | 0.01 | 0.02 | 0.02 | 99 | 1011.2 |
| 20260902023502 | 67 | 95 | 4.0 | 8.0 | 0.01 | 0.02 | 0.02 | 99 | 1011.0 |
| 20260902023003 | 67 | 103 | 4.0 | 7.0 | 0.01 | 0.02 | 0.02 | 100 | 1011.2 |
| 20260902022502 | 67 | 94 | 3.0 | 8.0 | 0.01 | 0.02 | 0.02 | 100 | 1011.3 |
| 20260902022003 | 67 | 94 | 5.0 | 8.0 | 0.01 | 0.02 | 0.02 | 100 | 1011.5 |
| 20260902021502 | 67 | 82 | 3.0 | 6.0 | 0.01 | 0.02 | 0.02 | 100 | 1011.8 |
| 20260902021003 | 67 | 66 | 1.0 | 2.0 | 0.00 | 0.01 | 0.01 | 100 | 1012.1 |
| 20260902020503 | 67 | 66 | 0.0 | 1.0 | 0.00 | 0.01 | 0.01 | 100 | 1012.1 |
| 20260902020003 | 67 | 66 | 0.0 | 2.0 | 0.01 | 0.01 | 0.01 | 100 | 1011.6 |
| 20260902015503 | 67 | 66 | 1.0 | 2.0 | 0.01 | 0.01 | 0.01 | 100 | 1011.7 |
| 20260902015003 | 67 | 66 | 1.0 | 2.0 | 0.01 | 0.01 | 0.01 | 100 | 1011.6 |
| 20260902014503 | 67 | 66 | 0.0 | 1.0 | 0.00 | 0.00 | 0.00 | 100 | 1011.8 |
| 20260902014002 | 67 | 66 | 0.0 | 1.0 | 0.00 | 0.00 | 0.00 | 100 | 1011.9 |
| 20260902013503 | 67 | 66 | 0.0 | 2.0 | 0.00 | 0.00 | 0.00 | 100 | 1011.4 |
| 20260902013002 | 68 | 66 | 1.0 | 4.0 | 0.00 | 0.00 | 0.00 | 100 | 1010.9 |
| 20260902012503 | 68 | 67 | 2.0 | 4.0 | 0.00 | 0.00 | 0.00 | 100 | 1010.7 |
| 20260902012002 | 68 | 67 | 1.0 | 2.0 | 0.00 | 0.00 | 0.00 | 99 | 1010.9 |
| 20260902011503 | 68 | 67 | 0.0 | 2.0 | 0.00 | 0.00 | 0.00 | 99 | 1011.3 |
| 20260902011002 | 68 | 67 | 0.0 | 2.0 | 0.00 | 0.00 | 0.00 | 98 | 1011.7 |
| 20260902010503 | 69 | 67 | 0.0 | 1.0 | 0.00 | 0.00 | 0.00 | 98 | 1011.5 |
| 20260902010003 | 69 | 67 | 0.0 | 0.0 | 0.00 | 0.00 | 0.00 | 97 | 1011.6 |
| 20260902005503 | 69 | 67 | 0.0 | 2.0 | 0.00 | 0.00 | 0.00 | 97 | 1011.4 |
| 20260902005003 | 69 | 67 | 0.0 | 4.0 | 0.00 | 0.00 | 0.00 | 97 | 1011.1 |
| 20260902004502 | 69 | 67 | 1.0 | 8.0 | 0.00 | 0.00 | 0.00 | 96 | 1011.2 |
| 20260902004003 | 69 | 91 | 4.0 | 8.0 | 0.00 | 0.00 | 0.00 | 96 | 1011.3 |
| 20260902003502 | 69 | 97 | 5.0 | 7.0 | 0.00 | 0.00 | 0.00 | 96 | 1011.4 |
| 20260902003003 | 69 | 97 | 2.0 | 3.0 | 0.00 | 0.00 | 0.00 | 96 | 1012.1 |
| 20260902002502 | 69 | 109 | 0.0 | 2.0 | 0.00 | 0.00 | 0.00 | 96 | 1012.7 |
| 20260902002003 | 69 | 109 | 0.0 | 2.0 | 0.00 | 0.00 | 0.00 | 96 | 1013.1 |
| 20260902001503 | 70 | 108 | 1.0 | 4.0 | 0.00 | 0.00 | 0.00 | 94 | 1013.0 |
| 20260902001003 | 70 | 78 | 2.0 | 4.0 | 0.00 | 0.00 | 0.00 | 94 | 1012.3 |
| 20260902000503 | 70 | 51 | 0.0 | 3.0 | 0.00 | 0.00 | 0.00 | 94 | 1012.1 |
| 20260902000003 | 70 | 51 | 1.0 | 3.0 | 0.00 | 0.00 | 0.00 | 94 | 1011.7 |
| 20260901235503 | 71 | 51 | 1.0 | 3.0 | 0.00 | 0.00 | 0.00 | 93 | 1011.6 |
| 20260901235003 | 71 | 51 | 1.0 | 3.0 | 0.00 | 0.00 | 0.00 | 93 | 1011.9 |
| 20260901234502 | 71 | 51 | 2.0 | 4.0 | 0.00 | 0.00 | 0.00 | 92 | 1012.0 |
| 20260901234003 | 71 | 50 | 2.0 | 6.0 | 0.00 | 0.00 | 0.00 | 91 | 1012.0 |
| 20260901233502 | 71 | 87 | 2.0 | 6.0 | 0.00 | 0.00 | 0.00 | 91 | 1012.1 |
| 20260901233003 | 71 | 67 | 3.0 | 5.0 | 0.00 | 0.00 | 0.00 | 91 | 1012.2 |
| 20260901232502 | 72 | 40 | 1.0 | 5.0 | 0.00 | 0.00 | 0.00 | 90 | 1012.4 |
| 20260901232003 | 72 | 37 | 1.0 | 3.0 | 0.00 | 0.00 | 0.00 | 89 | 1012.3 |
| 20260901231503 | 72 | 37 | 1.0 | 3.0 | 0.00 | 0.00 | 0.00 | 88 | 1012.5 |
| 20260901231003 | 72 | 37 | 1.0 | 2.0 | 0.00 | 0.00 | 0.00 | 88 | 1012.8 |
| 20260901230502 | 72 | 37 | 0.0 | 2.0 | 0.00 | 0.00 | 0.00 | 88 | 1012.9 |
| 20260901230003 | 72 | 38 | 0.0 | 2.0 | 0.00 | 0.00 | 0.00 | 86 | 1013.2 |
| 20260901225502 | 73 | 38 | 0.0 | 2.0 | 0.00 | 0.00 | 0.00 | 84 | 1013.2 |
| 20260901225003 | 73 | 38 | 0.0 | 2.0 | 0.00 | 0.00 | 0.00 | 84 | 1013.1 |
| 20260901224502 | 73 | 37 | 0.0 | 3.0 | 0.00 | 0.00 | 0.00 | 83 | 1012.9 |
| 20260901224003 | 74 | 38 | 0.0 | 3.0 | 0.00 | 0.00 | 0.00 | 83 | 1012.8 |
| 20260901223503 | 74 | 37 | 2.0 | 4.0 | 0.00 | 0.00 | 0.00 | 83 | 1012.6 |
| 20260901223003 | 74 | 37 | 2.0 | 4.0 | 0.00 | 0.00 | 0.00 | 83 | 1012.6 |
| 20260901222503 | 74 | 18 | 1.0 | 4.0 | 0.00 | 0.00 | 0.00 | 84 | 1012.6 |
| 20260901222003 | 74 | 16 | 1.0 | 3.0 | 0.00 | 0.00 | 0.00 | 86 | 1012.5 |
| 20260901221503 | 74 | 16 | 1.0 | 4.0 | 0.00 | 0.00 | 0.00 | 86 | 1012.6 |
| 20260901221003 | 74 | 25 | 2.0 | 4.0 | 0.00 | 0.00 | 0.00 | 86 | 1012.4 |
| 20260901220503 | 74 | 11 | 1.0 | 5.0 | 0.00 | 0.00 | 0.00 | 86 | 1012.6 |
| 20260901220003 | 74 | 343 | 1.0 | 6.0 | 0.00 | 0.00 | 0.00 | 87 | 1012.7 |
| 20260901215503 | 74 | 356 | 2.0 | 6.0 | 0.00 | 0.00 | 0.00 | 86 | 1012.8 |
| 20260901215002 | 75 | 360 | 1.0 | 4.0 | 0.00 | 0.00 | 0.00 | 85 | 1012.9 |
| 20260901214503 | 75 | 356 | 1.0 | 4.0 | 0.00 | 0.00 | 0.00 | 85 | 1012.9 |
| 20260901214003 | 75 | 2 | 2.0 | 5.0 | 0.00 | 0.00 | 0.00 | 82 | 1012.9 |
| 20260901213503 | 75 | 88 | 3.0 | 5.0 | 0.00 | 0.00 | 0.00 | 83 | 1012.7 |
| 20260901213002 | 75 | 88 | 1.0 | 4.0 | 0.00 | 0.00 | 0.00 | 83 | 1012.7 |
| 20260901212503 | 75 | 87 | 2.0 | 4.0 | 0.00 | 0.00 | 0.00 | 83 | 1012.8 |
| 20260901212003 | 75 | 87 | 1.0 | 4.0 | 0.00 | 0.00 | 0.00 | 82 | 1012.9 |
| 20260901211503 | 75 | 71 | 0.0 | 3.0 | 0.00 | 0.00 | 0.00 | 84 | 1012.9 |
| 20260901211003 | 75 | 71 | 0.0 | 5.0 | 0.00 | 0.00 | 0.00 | 84 | 1012.9 |
| 20260901210503 | 75 | 70 | 2.0 | 5.0 | 0.00 | 0.00 | 0.00 | 84 | 1012.5 |
| 20260901210003 | 75 | 64 | 3.0 | 5.0 | 0.00 | 0.00 | 0.00 | 83 | 1012.1 |
| 20260901205503 | 75 | 57 | 3.0 | 4.0 | 0.00 | 0.00 | 0.00 | 80 | 1012.5 |
| 20260901205003 | 75 | 336 | 1.0 | 2.0 | 0.00 | 0.00 | 0.00 | 79 | 1013.0 |
| 20260901204502 | 76 | 337 | 0.0 | 0.0 | 0.00 | 0.00 | 0.00 | 80 | 1013.4 |
| 20260901204003 | 76 | 337 | 0.0 | 1.0 | 0.00 | 0.00 | 0.00 | 79 | 1013.5 |
| 20260901203502 | 76 | 337 | 0.0 | 2.0 | 0.00 | 0.00 | 0.00 | 77 | 1013.4 |
| 20260901203003 | 76 | 336 | 0.0 | 2.0 | 0.00 | 0.00 | 0.00 | 77 | 1013.1 |
| 20260901202503 | 77 | 335 | 0.0 | 4.0 | 0.00 | 0.00 | 0.00 | 77 | 1013.1 |
| 20260901202003 | 77 | 313 | 1.0 | 4.0 | 0.00 | 0.00 | 0.00 | 76 | 1013.0 |
| 20260901201503 | 77 | 356 | 1.0 | 5.0 | 0.00 | 0.00 | 0.00 | 76 | 1012.9 |
| 20260901201003 | 77 | 52 | 2.0 | 5.0 | 0.00 | 0.00 | 0.00 | 75 | 1012.9 |
| 20260901200503 | 77 | 50 | 1.0 | 4.0 | 0.00 | 0.00 | 0.00 | 76 | 1012.8 |
| 20260901200003 | 77 | 24 | 1.0 | 5.0 | 0.00 | 0.00 | 0.00 | 74 | 1012.8 |
| 20260901195503 | 77 | 56 | 2.0 | 5.0 | 0.00 | 0.00 | 0.00 | 75 | 1012.8 |
| 20260901195003 | 77 | 67 | 1.0 | 5.0 | 0.00 | 0.00 | 0.00 | 76 | 1012.8 |
| 20260901194503 | 77 | 60 | 2.0 | 5.0 | 0.00 | 0.00 | 0.00 | 76 | 1012.7 |
| 20260901194003 | 77 | 48 | 1.0 | 3.0 | 0.00 | 0.00 | 0.00 | 77 | 1012.8 |
| 20260901193503 | 76 | 59 | 2.0 | 5.0 | 0.00 | 0.00 | 0.00 | 78 | 1012.8 |
| 20260901193003 | 76 | 65 | 2.0 | 5.0 | 0.00 | 0.00 | 0.00 | 81 | 1012.9 |
| 20260901192503 | 76 | 333 | 1.0 | 4.0 | 0.00 | 0.00 | 0.00 | 81 | 1013.0 |
| 20260901192003 | 76 | 27 | 1.0 | 3.0 | 0.00 | 0.00 | 0.00 | 79 | 1013.1 |
| 20260901191503 | 76 | 42 | 1.0 | 3.0 | 0.00 | 0.00 | 0.00 | 79 | 1013.0 |
| 20260901191002 | 75 | 95 | 0.0 | 2.0 | 0.00 | 0.00 | 0.00 | 78 | 1013.1 |
| 20260901190503 | 76 | 95 | 0.0 | 2.0 | 0.00 | 0.00 | 0.00 | 77 | 1013.2 |
| 20260901190002 | 76 | 95 | 0.0 | 3.0 | 0.00 | 0.00 | 0.00 | 76 | 1013.0 |
| 20260901185503 | 76 | 95 | 1.0 | 7.0 | 0.00 | 0.00 | 0.00 | 76 | 1013.0 |
| 20260901185002 | 76 | 96 | 2.0 | 8.0 | 0.00 | 0.00 | 0.00 | 75 | 1013.0 |
| 20260901184503 | 76 | 98 | 2.0 | 8.0 | 0.00 | 0.00 | 0.00 | 75 | 1012.8 |
| 20260901184003 | 76 | 111 | 3.0 | 8.0 | 0.00 | 0.00 | 0.00 | 76 | 1012.7 |
| 20260901183503 | 76 | 99 | 3.0 | 8.0 | 0.00 | 0.00 | 0.00 | 75 | 1012.7 |
| 20260901183003 | 76 | 101 | 4.0 | 8.0 | 0.00 | 0.00 | 0.00 | 74 | 1012.7 |
| 20260901182503 | 76 | 103 | 4.0 | 8.0 | 0.00 | 0.00 | 0.00 | 74 | 1012.8 |
| 20260901182003 | 76 | 89 | 4.0 | 8.0 | 0.00 | 0.00 | 0.00 | 75 | 1012.8 |
| 20260901181503 | 76 | 82 | 4.0 | 7.0 | 0.00 | 0.00 | 0.00 | 76 | 1012.9 |
| 20260901181003 | 76 | 92 | 4.0 | 6.0 | 0.00 | 0.00 | 0.00 | 75 | 1013.1 |
| 20260901180502 | 75 | 70 | 2.0 | 4.0 | 0.00 | 0.00 | 0.00 | 76 | 1013.2 |
| 20260901180003 | 75 | 60 | 1.0 | 3.0 | 0.00 | 0.00 | 0.00 | 76 | 1013.3 |
| 20260901175502 | 75 | 59 | 2.0 | 3.0 | 0.00 | 0.00 | 0.00 | 75 | 1013.3 |
| 20260901175003 | 75 | 59 | 0.0 | 2.0 | 0.00 | 0.00 | 0.00 | 75 | 1013.4 |
| 20260901174502 | 76 | 59 | 0.0 | 4.0 | 0.00 | 0.00 | 0.00 | 75 | 1013.5 |
| 20260901174003 | 76 | 59 | 2.0 | 4.0 | 0.00 | 0.00 | 0.00 | 74 | 1013.3 |
| 20260901173503 | 76 | 59 | 1.0 | 4.0 | 0.00 | 0.00 | 0.00 | 74 | 1013.4 |
| 20260901173003 | 76 | 59 | 2.0 | 6.0 | 0.00 | 0.00 | 0.00 | 72 | 1013.4 |
| 20260901172503 | 76 | 74 | 1.0 | 7.0 | 0.00 | 0.00 | 0.00 | 72 | 1013.4 |
| 20260901172002 | 76 | 92 | 4.0 | 7.0 | 0.00 | 0.00 | 0.00 | 72 | 1013.2 |
| 20260901171503 | 76 | 97 | 4.0 | 7.0 | 0.00 | 0.00 | 0.00 | 72 | 1013.0 |
| 20260901171002 | 76 | 91 | 4.0 | 6.0 | 0.00 | 0.00 | 0.00 | 74 | 1013.2 |
| 20260901170503 | 76 | 85 | 3.0 | 6.0 | 0.00 | 0.00 | 0.00 | 74 | 1013.5 |
| 20260901170002 | 76 | 51 | 3.0 | 6.0 | 0.00 | 0.00 | 0.00 | 74 | 1013.7 |
| 20260901165503 | 76 | 55 | 3.0 | 6.0 | 0.00 | 0.00 | 0.00 | 76 | 1013.6 |
| 20260901165002 | 76 | 66 | 3.0 | 6.0 | 0.00 | 0.00 | 0.00 | 77 | 1013.3 |
| 20260901164503 | 75 | 68 | 2.0 | 5.0 | 0.00 | 0.00 | 0.00 | 79 | 1013.4 |
| 20260901164003 | 75 | 53 | 1.0 | 5.0 | 0.00 | 0.00 | 0.00 | 81 | 1013.3 |
| 20260901163503 | 75 | 69 | 1.0 | 4.0 | 0.00 | 0.00 | 0.00 | 81 | 1013.0 |
| 20260901163002 | 75 | 70 | 1.0 | 3.0 | 0.00 | 0.00 | 0.00 | 84 | 1013.2 |
| 20260901162503 | 74 | 70 | 1.0 | 4.0 | 0.00 | 0.00 | 0.00 | 85 | 1013.3 |
| 20260901162003 | 74 | 31 | 1.0 | 4.0 | 0.00 | 0.00 | 0.00 | 86 | 1013.4 |
| 20260901161503 | 73 | 98 | 1.0 | 3.0 | 0.00 | 0.00 | 0.00 | 87 | 1013.7 |
| 20260901161003 | 73 | 145 | 1.0 | 3.0 | 0.00 | 0.00 | 0.00 | 88 | 1013.7 |
| 20260901160503 | 73 | 165 | 1.0 | 2.0 | 0.00 | 0.00 | 0.00 | 88 | 1014.0 |
| 20260901160003 | 72 | 165 | 1.0 | 3.0 | 0.00 | 0.00 | 0.00 | 89 | 1014.1 |
| 20260901155503 | 71 | 165 | 1.0 | 3.0 | 0.00 | 0.00 | 0.00 | 91 | 1014.1 |
| 20260901155003 | 71 | 175 | 1.0 | 3.0 | 0.00 | 0.00 | 0.00 | 92 | 1014.3 |
| 20260901154503 | 70 | 232 | 1.0 | 2.0 | 0.00 | 0.00 | 0.00 | 93 | 1014.3 |
| 20260901154002 | 70 | 232 | 1.0 | 2.0 | 0.00 | 0.00 | 0.00 | 95 | 1014.2 |
| 20260901153503 | 69 | 232 | 1.0 | 2.0 | 0.00 | 0.00 | 0.00 | 96 | 1014.2 |
| 20260901153002 | 69 | 233 | 0.0 | 0.0 | 0.00 | 0.00 | 0.00 | 96 | 1014.1 |
| 20260901152503 | 68 | 233 | 0.0 | 0.0 | 0.00 | 0.00 | 0.00 | 97 | 1014.1 |
| 20260901152003 | 68 | 233 | 0.0 | 0.0 | 0.00 | 0.00 | 0.00 | 97 | 1014.0 |
| 20260901151503 | 68 | 233 | 0.0 | 1.0 | 0.00 | 0.00 | 0.00 | 98 | 1014.1 |
| 20260901151003 | 68 | 233 | 0.0 | 1.0 | 0.00 | 0.00 | 0.00 | 99 | 1013.9 |
| 20260901150502 | 67 | 233 | 0.0 | 0.0 | 0.00 | 0.00 | 0.00 | 99 | 1013.9 |